Temp_Advection
nan nan nan nan nan nan nan nan nan nan nan nan nan nan nan nan nan nan nan nan nan nan
nan 0 0 0 0 0 0 0 0 0 0 -0 -0 -0 0 -0 -0 -0 -0 -0 -0 nan
nan 0 0 0 0 0 0 0 0 0 0 -0 -0 -0 -0 -0 -0 -0 -0 -0 -0 nan
nan 0 0 -0 -0 0 0 0 0 0 -0 -0 -0 -0 -0 -0 -0 -0 -0 -0 0 nan
nan 0 -0 -0 -0 0 0 -0 -0 -0 -0 -0 0 0 -0 -0 -0 -0 -0 0 0 nan
nan -0 0 0 0 0 -0 0 -0 0 0 0 0 0 0 -0 -0 0 0 0 -0 nan
nan 0 1 0 0 0 0 0 0 0 0 0 0 0 0 -0 -0 0 0 -0 -0 nan
nan 1 0 0 0 0 0 0 0 0 0 0 0 0 -0 0 0 -0 -0 -0 -1 nan
nan 1 1 0 0 1 1 0 1 1 0 0 0 0 -0 -0 -0 -0 -0 -0 -0 nan
nan 1 1 1 1 1 1 1 1 0 1 0 0 0 -0 -0 0 -0 -0 0 0 nan
nan 1 1 1 1 0 1 0 0 0 0 0 0 0 -0 -0 0 0 -0 -0 0 nan
nan 0 1 1 -0 -0 -0 -0 -0 0 -0 0 0 0 -0 -0 0 -0 -0 -0 0 nan
nan 0 -0 -0 -0 -0 -0 0 0 0 0 0 0 0 0 -0 -0 0 -0 -1 -0 nan
nan nan nan nan nan nan nan nan nan nan nan nan nan nan nan nan nan nan nan nan nan nan
Wind_Speed
12 13 12 9 9 8 6 3 2 2 2 3 4 6 6 6 6 7 7 8 10 12
15 13 13 12 10 8 5 4 4 3 3 4 5 8 3 6 8 6 6 8 9 9
16 15 12 11 10 9 7 6 5 5 4 4 5 7 6 6 7 7 6 7 8 9
17 15 14 12 10 8 8 8 7 6 6 6 5 6 6 5 6 6 6 8 8 9
18 16 15 13 11 10 10 10 9 7 6 6 6 5 7 7 7 8 10 11 11 12
20 20 17 14 11 11 12 10 8 7 7 8 8 8 7 8 9 10 11 12 12 14
19 19 15 13 12 12 11 10 10 10 9 9 10 10 9 10 10 10 10 11 12 12
20 20 17 15 13 13 13 13 12 11 11 11 10 11 11 8 9 9 10 10 13 13
21 19 18 16 15 14 14 14 13 12 11 11 10 9 10 10 8 9 10 10 9 10
21 20 19 16 16 14 14 14 11 10 9 10 12 13 14 14 5 6 7 5 5 7
25 21 19 19 18 16 14 15 13 11 10 10 13 14 14 11 5 5 4 3 3 7
23 27 22 21 20 20 18 16 15 15 13 10 13 14 13 11 2 2 1 2 3 6
27 20 23 23 22 20 18 18 18 15 13 12 13 13 12 12 11 6 4 8 5 5
21 23 23 23 22 21 21 21 22 23 20 15 12 12 12 11 10 10 8 6 9 6
Wind_Direction
176 170 169 178 167 185 209 215 175 125 101 92 88 82 102 89 72 74 57 73 52 22
171 177 182 179 183 192 190 172 159 151 133 111 109 111 97 113 102 86 65 72 83 79
178 186 179 170 183 187 178 182 167 167 158 143 140 153 152 120 122 120 96 88 88 90
184 182 179 184 184 184 179 176 179 181 174 164 154 144 129 118 119 109 100 92 83 78
186 183 187 189 189 185 184 183 187 186 175 163 162 142 128 123 106 98 91 79 71 63
193 190 198 197 193 189 195 194 192 181 173 164 148 132 127 119 109 96 87 77 69 63
197 197 192 196 195 195 191 189 182 176 167 157 145 135 124 115 104 91 81 75 67 58
195 196 195 193 193 192 186 182 178 172 163 153 147 143 119 104 107 83 67 60 50 40
196 193 187 186 191 185 182 177 174 166 165 163 156 142 132 99 76 88 66 54 34 37
186 190 180 186 187 180 175 168 159 157 164 160 158 147 133 120 135 106 95 86 34 26
184 185 180 182 177 175 169 161 166 159 197 173 161 157 148 135 145 157 139 100 40 18
182 187 186 174 178 173 173 167 170 175 205 190 168 165 156 142 171 320 25 85 354 5
201 187 175 176 173 175 170 171 176 168 194 210 178 175 167 154 180 194 269 316 343 345
175 181 179 176 176 171 176 183 179 188 199 209 185 188 183 182 193 198 216 262 300 337
Height
1486 1489 1491 1492 1493 1493 1495 1497 1497 1497 1499 1501 1500 1499 1501 1501 1501 1500 1499 1499 1498 1496
1484 1488 1488 1490 1490 1492 1495 1495 1495 1497 1499 1499 1499 1500 1501 1500 1500 1500 1499 1498 1497 1498
1483 1485 1487 1488 1489 1491 1492 1493 1495 1497 1498 1498 1499 1499 1499 1498 1499 1499 1498 1498 1497 1497
1480 1482 1485 1485 1487 1489 1491 1493 1494 1496 1496 1497 1498 1498 1499 1498 1499 1499 1499 1498 1497 1495
1477 1480 1482 1483 1485 1487 1491 1492 1493 1494 1496 1497 1498 1498 1498 1499 1500 1500 1500 1499 1497 1496
1475 1477 1478 1481 1483 1485 1489 1490 1492 1494 1496 1497 1497 1498 1499 1500 1501 1501 1500 1498 1498 1497
1472 1475 1478 1479 1482 1484 1488 1491 1492 1494 1495 1496 1497 1498 1500 1501 1501 1501 1499 1499 1498 1497
1468 1472 1475 1477 1480 1484 1486 1490 1491 1493 1495 1496 1497 1498 1500 1502 1501 1500 1499 1498 1498 1497
1466 1469 1472 1476 1479 1482 1485 1488 1490 1492 1494 1495 1497 1498 1500 1501 1502 1501 1500 1499 1499 1498
1464 1466 1470 1475 1478 1481 1484 1487 1489 1491 1493 1495 1497 1499 1500 1502 1503 1502 1501 1500 1499 1498
1462 1465 1469 1473 1477 1481 1484 1487 1490 1493 1493 1494 1497 1499 1501 1502 1501 1501 1500 1499 1498 1497
1460 1463 1465 1471 1475 1480 1483 1487 1490 1492 1491 1494 1496 1498 1499 1500 1501 1499 1498 1499 1498 1497
1456 1461 1466 1471 1475 1479 1482 1486 1489 1491 1491 1491 1495 1496 1498 1499 1500 1500 1498 1496 1497 1497
1456 1461 1466 1470 1474 1478 1481 1483 1485 1485 1488 1490 1492 1494 1496 1497 1497 1498 1498 1496 1495 1495